Miscellaneous Local Product
Issued by NWS Hastings, NE

Home | Current Version | Previous Version | Text Only | Print | Product List | Glossary Off
Versions: 1 2 3 4 5 6 7 8 9 10 11 12 13 14 15 16 17 18 19 20 21 22 23 24 25 26 27 28 29 30 31 32 33 34 35 36 37 38 39 40 41 42 43 44 45 46 47 48 49 50

000
AXUS43 KGID 270502
MISGRI

GID CWA HOURLY WEATHER ROUNDUP
NATIONAL WEATHER SERVICE HASTINGS NE
1200 AM CDT WED JUL 27 2016

NOTE: "FAIR" INDICATES FEW OR NO CLOUDS BELOW 12,000 FEET WITH NO
SIGNIFICANT WEATHER AND/OR OBSTRUCTIONS TO VISIBILITY.

...SOUTH CENTRAL NEBRASKA...

CITY           SKY/WX    TMP DP  RH WIND       PRES   REMARKS
GRAND ISLAND   PTCLDY    72  67  84 SE8       30.05F
HASTINGS       PTCLDY    74  64  71 S7        30.04F
KEARNEY        PTCLDY    73  64  73 SE9       30.05F
ORD            CLOUDY    75  65  70 SE13      29.99F
YORK           PTCLDY    72  66  83 S8        30.04S
AURORA         CLEAR     69  67  93 SE5       30.04F
LEXINGTON      CLOUDY    75  66  73 SE12      30.03F
HOLDREGE       MOCLDY    71  66  82 SE7       30.05F
HEBRON         PTCLDY    71  66  83 CALM      30.04R

...NEBRASKA PANHANDLE...

CITY           SKY/WX    TMP DP  RH WIND       PRES   REMARKS
CHADRON        CLOUDY    66  60  81 SW6       30.06R
ALLIANCE       PTCLDY    65  59  81 MISG      30.06F
SCOTTSBLUFF    PTCLDY    67  57  70 N8        30.04F
SIDNEY         CLOUDY    72  45  37 SE8       30.13R

...WESTERN AND NORTH CENTRAL NEBRASKA...

CITY           SKY/WX    TMP DP  RH WIND       PRES   REMARKS
VALENTINE      RAIN      64  32  30 MISG      30.07F
AINSWORTH      TSTM      62  62 100 S6        30.19R
ONEILL         CLOUDY    75  66  73 E8        30.03S THUNDER
BROKEN BOW     TSTM      73  68  84 S12       30.01F
IMPERIAL       CLEAR     72  56  57 S5        30.06R
NORTH PLATTE   CLOUDY    74  66  76 NE9       30.09R
MCCOOK         PTCLDY    80  64  58 S7        30.04R

...EASTERN NEBRASKA...

CITY           SKY/WX    TMP DP  RH WIND       PRES   REMARKS
NORFOLK        CLOUDY    71  63  75 S8        30.02F
SO SIOUX CITY  MOCLDY    73  67  81 S8        29.99F
TEKAMAH        PTCLDY    68  65  90 S6        30.00F
COLUMBUS       CLOUDY    72  61  68 SE6       30.03F
ALBION         CLOUDY    70  65  84 SE5       30.04R
OMAHA EPPLEY   CLEAR     76  67  73 SE7       30.01F
OFFUTT AFB     CLEAR     67  67 100 E5        30.01F
MILLARD        CLEAR     72  69  90 CALM      30.01F
LINCOLN        CLEAR     76  64  66 CALM      30.03S
NEBRASKA CITY  CLEAR     72  67  84 CALM      30.02S
BEATRICE       CLEAR     72  66  82 CALM      30.02F
FALLS CITY     CLEAR     72  68  87 CALM      30.01R

...NORTHERN KANSAS...

CITY           SKY/WX    TMP DP  RH WIND       PRES   REMARKS
GOODLAND       CLOUDY    73  55  53 S16       30.07F
HILL CITY      CLOUDY    79  66  64 S7        30.00F
NORTON         PTCLDY    75  61  60 E6        30.01F
SMITH CENTER   CLEAR     73  66  78 SE8       30.03R
BELOIT         CLEAR     73  68  83 E5        30.01R
HAYS           CLOUDY    75  63  64 SE3       30.03S
RUSSELL        PTCLDY    74  69  85 SE8       30.01F
CONCORDIA      PTCLDY    72  67  84 S7        30.02R
SALINA         CLEAR     75  68  78 SE5       30.01R
TOPEKA         CLEAR     74  69  85 CALM      29.99S



USA.gov is the U.S. government's official web portal to all federal, state and local government web resources and services.